SCP
0 0 0 0 0 0 0 0 0 0 0 0 0 0 0 0 0 0 0 0 0 0 0 0 0 0 0 0 1 0 0 0 0 0 0 0 0 0 0 0 0 0 0 0 0 0 0 0 0 0 0 0 0 0
0 0 0 0 0 0 0 0 0 0 0 0 0 0 0 0 0 0 0 0 0 0 0 0 0 0 0 0 0 0 1 0 0 0 0 0 0 0 0 0 0 0 0 0 0 0 0 0 0 0 0 0 0 0
0 0 0 0 0 0 0 0 0 0 0 0 0 0 0 0 0 0 0 0 0 -0 0 0 0 0 0 0 0 0 0 0 0 0 0 0 0 0 0 0 0 0 0 0 0 0 0 0 0 0 0 0 0 0
0 0 0 0 0 0 0 0 0 0 0 0 0 0 0 0 0 0 0 0 0 0 0 0 0 0 0 0 0 0 0 0 0 0 0 0 0 0 0 0 0 0 0 0 0 0 0 0 0 0 0 0 0 0
0 0 0 0 0 0 0 0 0 0 0 0 0 0 0 0 0 0 0 0 0 0 0 0 0 0 0 0 0 0 0 0 1 1 0 0 0 0 0 0 0 0 0 0 0 0 0 0 0 0 0 0 0 0
0 0 0 0 0 0 0 0 0 0 0 0 0 0 0 0 0 0 0 0 0 0 0 0 0 0 0 0 0 0 0 0 0 0 1 1 0 1 0 0 0 0 0 0 0 0 0 0 0 0 0 0 0 0
0 0 0 0 0 0 0 0 0 0 0 0 0 0 0 0 0 0 0 0 0 0 0 0 0 0 0 0 0 0 0 0 0 0 0 1 0 0 0 0 0 0 0 0 0 0 0 0 0 0 0 0 0 0
0 0 0 0 0 0 0 0 0 0 0 0 0 0 0 0 0 0 0 0 0 0 0 0 0 0 0 0 0 0 0 0 0 0 1 1 0 0 0 0 0 0 0 0 0 0 0 0 0 0 0 0 0 0
0 0 0 0 0 0 0 0 0 0 0 0 0 0 0 0 0 0 0 0 -0 0 0 0 0 0 0 0 1 0 0 0 1 0 1 1 1 0 1 1 0 0 0 0 0 0 0 0 0 0 0 0 0 0
0 0 0 0 0 0 0 0 0 0 0 0 0 0 0 0 0 0 0 0 0 0 0 0 0 0 0 0 0 1 0 1 0 0 1 1 1 0 0 0 0 0 0 0 0 0 0 0 0 0 0 0 0 0
0 0 0 0 0 0 0 0 0 0 0 0 0 0 0 0 0 0 0 0 0 0 0 0 0 0 0 0 0 0 0 0 0 1 1 1 1 0 0 0 0 0 0 0 0 0 0 0 0 0 0 0 0 0
0 0 0 0 0 0 0 0 0 0 0 0 0 0 0 0 0 0 0 0 0 0 0 0 0 0 0 0 0 0 0 0 0 1 0 1 0 0 0 0 0 0 0 0 0 0 0 0 0 0 0 0 0 0
0 0 0 0 0 0 0 0 0 0 0 0 0 0 0 0 0 0 0 0 0 0 0 0 0 0 0 0 0 0 0 0 1 1 0 0 0 0 0 0 0 0 0 0 0 0 0 0 0 0 0 0 -0 0
0 0 0 0 0 0 0 0 0 0 0 0 0 0 0 0 0 0 0 0 0 0 0 0 0 0 0 0 0 0 0 1 0 0 0 0 0 0 0 0 0 0 0 0 0 0 0 0 0 0 0 0 0 0
0 0 0 0 0 0 0 0 0 0 0 0 0 0 0 0 0 0 0 0 0 0 0 0 0 0 0 0 0 0 0 0 0 0 0 0 0 0 0 0 0 0 0 0 0 0 0 0 0 0 0 0 0 0
0 0 0 0 0 0 0 0 0 0 0 0 0 0 0 0 0 0 0 0 0 0 0 0 0 0 0 0 0 0 0 0 0 0 0 0 0 0 0 0 0 0 0 0 0 0 0 0 0 0 0 0 0 0
0 0 -0 0 0 0 0 0 0 0 0 0 0 0 0 0 0 0 0 0 0 0 0 0 0 0 0 0 0 0 0 0 0 0 0 0 0 0 0 0 0 0 0 0 0 0 0 0 0 0 0 0 0 0
0 0 0 0 0 0 0 0 0 0 0 0 0 0 0 0 0 0 0 0 0 0 0 0 0 0 0 0 0 0 0 0 0 0 0 0 0 0 0 0 0 0 -0 0 0 0 0 0 0 0 0 0 0 0
0 0 0 0 0 0 0 0 0 0 0 0 0 0 0 0 0 0 0 0 0 0 0 0 0 0 0 0 0 0 0 0 0 0 0 0 0 0 0 0 0 0 0 0 0 0 0 0 0 0 0 0 0 0
0 0 0 0 0 0 0 0 0 0 0 0 0 0 0 0 0 -0 0 0 0 0 0 0 0 0 0 0 0 0 0 0 0 0 0 0 0 0 0 0 0 0 0 0 0 0 0 0 0 0 0 0 0 0
0 0 0 0 -0 0 0 0 0 0 0 0 0 0 0 0 0 0 0 0 0 0 0 0 0 0 0 0 0 0 0 0 0 0 0 0 0 0 0 0 0 0 0 0 0 0 0 0 0 0 0 0 0 0
0 0 0 0 0 0 0 0 0 0 0 0 0 -0 -0 -0 -0 -0 -0 0 0 0 0 0 0 0 0 0 0 0 0 0 0 0 0 0 0 0 0 0 0 0 0 0 0 0 0 0 0 0 0 0 0 0
0 0 0 0 0 0 0 0 0 0 0 0 0 -0 -0 -0 -0 -0 0 0 0 0 0 0 0 0 0 0 0 0 0 0 0 0 0 0 0 0 0 0 0 0 0 0 0 0 0 0 0 0 0 0 0 0
0 0 0 0 0 0 0 0 0 0 0 0 0 0 0 -0 0 0 0 0 0 0 0 -0 0 0 0 0 0 0 0 0 0 0 0 0 0 0 0 0 0 0 0 0 0 0 0 0 0 0 0 0 0 0
0 0 0 0 0 0 0 -0 0 -0 -0 -0 -0 -0 -0 0 0 0 0 0 0 0 0 0 0 0 0 0 0 0 0 0 0 0 0 0 0 0 0 0 0 0 0 0 0 0 0 0 0 0 0 0 0 0
0 0 0 0 0 0 0 0 -0 0 0 0 0 0 0 0 0 0 0 0 0 0 0 0 0 0 0 0 0 0 0 0 0 0 0 0 0 0 0 0 0 0 0 0 0 0 0 0 0 0 0 0 0 0
0 0 0 0 0 0 0 0 0 0 0 0 0 0 0 0 0 0 0 0 0 0 0 0 0 0 0 0 0 0 0 0 0 0 0 0 0 0 0 0 0 0 0 0 0 0 0 0 0 0 0 0 0 0
0 0 0 0 0 0 0 0 0 0 0 0 0 0 0 0 0 0 0 0 0 0 0 0 0 0 0 0 0 0 0 0 0 0 0 0 0 0 0 0 0 0 0 0 0 0 0 0 0 0 0 0 0 0
-0 -0 -0 0 0 0 0 0 0 0 0 0 0 0 -0 -0 0 0 0 0 0 0 0 0 0 0 0 0 0 0 0 0 0 0 0 0 0 0 0 0 0 0 0 0 0 0 0 0 0 0 0 0 0 0
0 0 0 0 0 0 0 0 0 0 0 0 -0 -0 -0 -0 0 0 0 0 0 0 0 0 0 0 0 0 0 0 0 0 0 0 0 0 0 0 0 0 0 0 0 0 0 0 0 0 0 0 0 0 0 0
0 0 0 0 0 0 0 0 0 -0 -0 -0 -0 -0 -0 -0 -0 0 0 0 0 0 0 0 0 0 0 0 0 0 0 0 0 0 0 0 0 0 0 0 0 0 0 0 0 0 0 0 0 0 0 0 0 0
0 0 0 0 0 0 -0 -0 -0 -0 -0 -0 -0 -0 -0 0 0 0 0 0 0 0 0 0 0 0 0 0 0 0 0 0 0 0 0 0 0 0 0 0 0 0 0 0 0 0 0 0 0 0 0 0 0 0
0 0 -0 0 0 0 0 0 0 -0 -0 -0 0 0 0 0 0 0 0 0 0 0 0 0 0 0 0 0 0 0 0 0 0 0 0 0 0 0 0 0 0 0 0 0 0 0 0 0 0 0 0 0 0 0
Wind_Speed_500mb
29 28 28 28 27 28 30 32 32 32 31 31 29 27 23 22 20 18 13 12 17 15 40 26 21 23 21 14 8 9 9 11 11 10 6 6 9 8 9 2 5 7 7 7 5 8 10 9 10 9 13 12 6 7
31 31 30 30 28 28 30 33 32 32 31 30 29 27 23 22 21 19 9 19 26 21 34 49 57 53 42 27 13 7 10 1 4 5 6 2 8 8 8 9 8 8 5 7 7 7 5 4 4 5 11 11 10 11
32 33 32 32 30 29 30 32 33 32 31 30 29 27 24 21 22 22 24 25 22 24 47 27 13 14 25 48 44 13 10 7 6 7 6 3 10 8 11 12 7 9 10 9 5 12 10 11 12 13 13 12 10 14
32 34 34 32 32 30 30 32 34 33 31 30 29 27 25 22 22 25 26 21 21 17 14 10 15 20 11 14 34 51 30 11 11 8 15 6 10 3 6 6 13 8 15 12 14 9 10 15 17 20 21 19 18 22
32 34 33 33 33 31 31 32 34 33 32 31 30 27 26 24 23 25 27 31 21 13 15 36 53 25 17 38 39 34 37 38 15 6 7 8 2 4 5 8 15 12 16 12 14 8 22 27 21 22 21 23 16 17
33 33 32 32 31 32 32 33 34 33 32 31 29 26 25 23 22 16 6 4 11 10 11 9 15 13 6 9 29 41 34 29 33 16 12 6 7 8 5 4 12 39 30 20 11 9 10 23 22 19 20 19 20 21
34 32 31 30 31 32 32 33 33 33 32 32 30 26 25 23 25 16 9 11 12 18 9 15 10 6 7 13 15 23 29 24 25 25 14 12 13 8 6 6 20 36 28 18 11 25 23 26 17 24 24 26 26 25
34 31 29 28 30 30 31 33 32 33 33 32 29 27 25 26 32 32 25 29 27 16 12 8 9 12 13 15 16 19 18 23 17 19 8 12 9 9 9 17 10 18 24 19 21 17 14 29 31 28 24 22 23 24
34 31 26 31 29 29 31 32 31 32 33 30 27 23 28 26 14 14 15 15 18 16 10 10 7 3 5 8 6 16 19 11 11 15 14 17 10 12 4 13 11 18 21 18 21 22 28 29 29 26 22 20 21 19
33 30 31 32 30 30 30 29 29 31 28 21 19 7 9 9 13 8 7 9 14 17 17 15 24 13 8 9 11 10 14 9 9 12 19 11 11 6 2 3 8 10 17 25 31 31 29 29 26 22 20 17 17 16
34 32 33 30 28 28 26 25 24 26 9 6 5 8 11 10 6 9 11 16 18 11 19 23 45 29 24 13 4 11 5 7 7 10 10 11 7 9 6 10 15 14 16 16 18 25 24 26 27 25 23 14 10 13
35 34 30 28 28 27 24 22 20 15 8 12 20 30 18 9 14 11 10 12 13 10 19 17 22 28 19 17 18 11 8 6 8 20 8 7 8 21 20 22 28 31 32 36 35 37 31 30 23 13 10 12 8 9
36 31 28 26 24 23 24 20 17 11 10 14 8 8 9 11 8 11 15 11 9 13 15 19 13 13 14 17 13 8 11 9 11 8 4 7 27 26 26 27 29 34 35 36 36 30 24 21 18 22 18 12 6 2
33 29 26 22 23 27 23 14 15 13 8 8 9 9 11 12 12 11 16 11 15 7 5 9 11 13 10 15 9 9 4 5 8 9 5 8 31 30 27 29 32 36 34 30 26 21 18 18 15 10 6 5 2 3
30 27 24 24 27 25 20 17 28 15 9 9 11 10 15 21 19 16 20 23 22 15 17 12 8 10 8 8 7 6 9 8 3 3 6 24 33 40 34 28 32 31 27 26 26 26 24 17 11 8 3 2 7 10
30 30 32 25 23 23 14 29 30 14 8 10 15 13 19 21 14 15 18 18 11 15 15 14 9 7 11 6 10 8 6 1 6 7 29 35 34 38 37 28 28 26 24 24 24 20 14 7 4 3 5 8 12 15
37 33 23 20 18 13 34 27 17 11 12 12 14 20 27 27 22 16 17 18 25 15 9 9 10 6 2 4 5 8 8 7 19 27 29 35 37 37 36 30 24 24 18 13 14 10 4 5 7 9 12 15 17 20
43 27 26 13 16 37 40 24 11 12 16 22 21 14 14 15 18 12 15 15 9 10 9 4 8 4 8 4 4 6 14 30 35 34 32 36 38 35 26 22 19 16 16 11 6 2 7 12 16 17 20 20 25 25
42 29 23 33 42 39 19 14 14 11 26 28 25 23 11 3 3 11 11 10 6 9 3 7 8 6 5 10 15 25 26 36 44 38 29 25 20 20 21 18 15 11 9 4 4 9 15 18 21 23 24 24 27 29
50 43 41 43 57 17 13 12 20 15 12 13 23 20 7 2 2 9 21 19 15 8 13 8 7 11 14 23 27 37 44 41 36 35 25 18 11 12 15 13 10 8 3 4 9 15 20 23 22 24 25 27 25 29
43 46 40 49 55 22 11 12 21 16 14 13 18 21 8 9 7 11 16 20 13 11 9 11 16 34 40 44 39 36 29 23 20 15 12 11 11 12 11 10 7 2 6 12 17 21 24 26 27 26 25 24 27 34
60 48 40 51 21 13 16 21 15 9 11 11 26 17 10 7 7 10 9 27 12 12 10 24 43 45 42 38 32 29 26 23 22 21 18 15 13 10 8 4 4 8 13 16 20 25 28 26 24 23 25 30 35 38
53 36 29 27 19 16 19 19 18 14 11 21 22 13 6 7 7 10 12 11 9 15 31 38 44 42 41 35 33 31 24 21 20 16 14 12 10 7 4 5 8 13 17 20 24 24 23 24 22 31 32 35 38 40
37 32 19 18 22 10 13 14 17 4 6 5 7 10 7 8 16 9 7 7 7 18 35 42 39 40 36 30 30 25 21 17 16 14 11 7 6 4 4 7 12 15 18 20 21 22 23 26 31 33 35 39 40 42
18 19 14 15 16 11 11 11 9 5 3 3 7 8 10 10 5 5 5 11 16 23 31 32 29 26 28 24 19 18 17 11 9 10 10 8 6 6 8 11 13 16 18 21 23 26 29 31 33 37 40 41 44 46
12 23 14 22 10 14 9 12 13 10 9 8 5 13 8 7 6 7 5 28 23 24 32 26 24 24 20 16 13 10 11 12 9 8 8 8 9 10 11 13 16 16 21 23 27 31 34 36 38 40 42 43 43 43
4 6 4 5 5 6 8 11 13 10 8 7 6 8 7 7 7 6 17 22 32 33 27 24 18 18 17 13 10 10 9 9 10 7 4 6 8 10 11 14 16 19 24 25 27 32 36 38 40 42 44 43 40 40
8 18 10 16 16 22 10 10 10 9 7 10 5 9 6 6 5 13 25 35 33 30 30 26 20 15 13 12 10 7 7 6 9 10 11 10 14 13 12 13 18 30 25 28 33 33 33 35 40 40 39 39 39 40
9 9 9 21 14 17 16 14 11 9 8 4 6 6 8 11 30 48 43 38 36 35 29 21 15 14 13 11 10 8 6 6 9 11 13 15 15 13 19 20 22 24 28 30 33 36 37 40 34 35 33 36 37 36
4 6 10 17 12 11 14 14 11 9 11 15 25 54 51 45 41 41 44 39 27 22 18 16 13 10 7 5 5 6 8 8 10 13 17 18 17 19 21 22 24 27 29 29 30 31 33 36 32 30 32 34 36 38
10 12 13 15 12 27 37 41 48 56 61 63 52 59 54 45 38 29 24 23 22 20 17 14 12 9 6 5 4 4 4 8 12 14 16 13 16 17 21 24 26 25 25 27 28 29 32 35 34 35 35 37 38 40
10 14 22 13 32 37 42 47 47 48 45 48 47 46 42 30 19 14 16 17 16 14 14 12 8 7 6 5 5 5 5 8 11 13 12 11 14 19 21 21 23 23 23 25 27 29 32 34 36 37 38 38 39 41
45 55 52 36 25 17 18 14 16 18 21 23 19 16 12 10 11 12 16 15 13 11 11 9 8 6 5 5 3 5 8 10 17 18 18 24 24 21 17 18 20 21 25 26 28 31 33 35 36 38 40 42 41 42
Wind_Direction_500mb
283 288 292 299 307 311 315 316 319 322 323 324 324 326 324 317 321 335 323 321 342 293 288 273 267 267 275 248 253 116 202 198 205 247 265 195 250 191 245 206 256 269 258 222 260 254 210 148 180 264 80 139 141 128
278 281 285 290 297 307 310 311 314 318 319 320 321 318 318 313 309 319 329 319 317 276 269 284 279 267 249 251 311 256 328 247 263 252 224 237 216 208 269 246 177 245 278 334 269 25 116 228 224 142 168 169 159 162
274 276 279 283 289 298 303 306 309 314 315 317 315 311 310 306 303 308 305 315 329 296 302 266 280 298 256 238 230 247 248 272 241 255 308 302 255 248 238 229 227 211 207 245 253 174 229 212 189 184 189 160 145 140
273 272 273 278 284 293 298 301 304 308 314 313 309 305 302 299 295 295 299 298 310 298 280 300 291 301 284 253 225 229 233 303 259 239 244 291 274 245 287 333 278 12 168 245 249 216 189 183 168 156 139 129 124 120
273 271 270 274 279 285 293 294 297 303 311 312 304 299 297 294 290 289 290 289 284 238 303 296 300 293 255 236 225 224 223 229 245 235 218 243 304 274 327 304 276 197 262 238 275 171 222 166 170 155 154 138 151 132
269 268 266 269 277 280 285 290 294 299 306 308 298 293 291 290 292 310 273 220 346 228 284 288 307 290 246 225 209 213 216 217 223 248 233 192 180 217 161 274 320 320 284 274 288 210 192 156 153 154 152 140 134 124
266 263 261 267 274 278 281 285 290 296 302 305 295 288 283 279 277 252 259 212 292 331 279 287 267 230 202 180 177 185 195 207 218 232 235 207 201 210 201 273 275 271 249 230 176 143 144 154 142 134 139 133 126 114
262 255 260 269 273 276 280 284 288 293 299 301 290 283 278 269 273 271 259 255 265 255 256 272 274 262 193 197 177 189 183 198 214 226 201 205 162 216 246 255 221 220 213 214 191 198 173 149 138 139 144 143 130 117
251 250 257 265 271 274 277 282 288 294 300 298 286 284 281 256 240 237 249 240 227 212 272 240 269 7 202 203 173 177 195 204 174 221 210 185 180 218 302 187 209 202 196 200 179 162 149 149 147 148 149 143 127 117
239 245 255 263 271 274 276 282 290 298 302 291 290 258 230 211 231 246 243 185 193 211 228 253 250 256 286 188 203 192 197 208 206 206 135 222 223 139 115 180 212 207 194 168 157 156 154 146 142 137 129 124 113 104
239 246 254 263 266 267 273 282 295 303 298 336 273 244 263 258 243 225 222 207 184 222 213 233 232 244 232 251 250 215 206 220 238 153 216 191 200 143 123 110 114 124 142 148 142 138 143 144 138 132 120 108 91 74
243 247 253 257 256 263 269 280 290 268 222 283 293 288 284 221 214 229 208 200 207 233 187 224 218 209 226 222 229 201 240 206 246 141 215 220 88 115 115 104 103 107 111 112 114 115 118 133 134 123 93 73 53 60
237 242 244 246 253 259 271 274 267 229 269 294 266 253 219 204 235 222 202 196 211 198 208 204 195 184 183 205 217 210 223 223 133 206 220 50 124 121 120 120 113 113 118 121 115 114 108 97 79 63 63 81 107 56
232 233 232 237 244 262 272 258 194 199 254 249 239 253 217 198 233 203 245 252 217 279 260 219 209 208 198 186 226 223 168 198 233 223 167 132 140 132 136 132 129 120 121 118 111 105 93 78 65 71 107 133 168 332
222 222 232 240 250 263 259 188 182 219 228 251 237 241 230 249 276 272 278 279 266 273 272 254 226 223 203 227 218 214 208 219 282 16 121 131 135 134 131 138 131 122 111 103 95 89 84 81 78 72 58 319 302 306
220 230 240 242 248 254 211 179 191 225 246 247 236 260 261 270 299 308 299 301 340 304 273 245 264 240 214 227 207 214 248 181 80 71 130 141 138 141 132 132 120 111 104 99 94 82 86 85 39 345 320 316 316 309
225 240 258 259 253 242 178 190 191 226 234 243 241 254 273 290 292 318 318 309 308 307 238 219 229 206 201 216 104 19 28 25 96 107 130 146 132 133 128 127 116 105 108 123 116 100 75 9 341 323 313 309 312 311
226 236 246 219 189 178 180 191 222 227 242 251 258 276 288 288 303 304 321 326 333 324 297 19 332 341 5 17 67 87 86 90 101 115 122 126 121 113 113 122 130 135 126 119 111 40 353 333 323 315 311 310 310 311
211 210 216 188 174 171 190 217 214 256 235 245 255 267 265 252 360 2 358 353 27 26 35 41 50 43 37 45 90 101 111 111 106 103 106 100 90 103 112 111 118 127 134 113 6 332 329 324 318 317 310 307 308 311
201 202 194 176 176 197 210 217 203 253 262 228 221 217 217 115 47 22 33 29 37 60 50 42 39 2 75 92 124 123 120 113 114 116 119 107 106 125 124 116 127 128 76 360 336 341 332 327 324 320 314 307 311 314
187 187 175 182 206 231 261 215 200 234 247 239 189 171 145 111 54 36 27 29 56 39 71 66 90 104 106 108 108 109 110 110 107 98 123 134 120 115 114 113 115 56 341 333 331 329 331 327 324 322 319 313 312 315
167 158 167 183 203 241 258 233 227 245 219 202 158 154 137 126 70 37 54 48 50 27 84 118 113 114 111 104 103 99 95 95 90 88 84 93 113 118 116 92 347 337 336 334 330 330 328 327 321 328 325 320 319 319
155 158 170 186 213 225 262 215 219 227 214 168 145 122 107 88 88 66 68 59 67 89 117 119 118 113 105 104 102 96 92 87 87 88 90 95 98 94 79 20 354 340 333 332 330 330 331 332 335 329 329 326 324 322
164 168 178 204 217 249 242 216 209 197 70 170 112 114 107 120 85 71 88 77 103 137 134 127 124 113 109 104 92 83 74 77 77 76 74 71 68 53 30 356 348 345 337 337 340 337 335 331 331 331 328 327 325 323
181 202 218 217 194 222 237 187 130 110 56 304 138 125 132 124 96 87 101 130 133 130 137 136 128 120 111 102 93 76 67 65 70 67 59 58 48 15 351 348 348 347 349 346 342 339 335 332 330 327 325 324 323 322
211 203 212 195 204 218 230 178 141 139 223 149 111 124 128 97 91 84 91 148 148 151 143 142 143 123 111 103 96 82 61 52 58 70 60 36 23 5 351 348 347 347 341 342 338 334 330 328 326 324 323 325 324 324
228 37 169 23 295 317 76 30 57 79 53 50 98 125 119 81 81 83 127 148 152 150 153 153 138 129 121 112 95 84 69 60 79 81 53 20 5 353 347 341 340 328 332 334 330 328 327 325 324 324 323 322 323 325
28 17 34 15 55 33 45 37 30 31 33 358 55 45 63 59 100 133 138 142 150 154 150 140 121 120 118 108 100 78 63 61 40 27 2 355 348 344 344 337 324 331 341 328 324 327 324 323 323 323 324 324 327 326
30 18 63 48 57 50 36 17 10 5 348 354 95 87 91 84 125 133 135 141 143 146 139 125 118 113 107 99 86 70 53 30 13 4 356 346 343 337 332 333 330 328 325 324 326 328 324 327 330 329 330 328 328 328
65 64 93 44 44 41 15 15 20 40 66 99 106 110 105 103 118 127 127 125 122 124 125 120 116 113 110 101 71 43 36 35 16 360 345 339 334 329 330 331 328 327 327 328 328 331 333 337 338 337 333 332 332 331
123 95 76 80 87 87 83 86 88 91 97 104 110 108 111 116 107 100 110 118 119 115 111 110 105 96 91 71 50 24 24 360 352 352 344 342 333 333 328 330 329 330 330 331 334 339 340 340 340 339 338 336 335 335
91 110 121 109 123 109 95 89 89 92 98 102 105 111 120 116 103 127 123 123 123 119 113 102 88 74 75 73 68 37 49 354 346 350 354 349 332 327 333 334 331 333 335 339 336 335 337 338 337 336 336 335 335 334
102 107 110 109 127 125 142 107 105 96 99 107 112 115 112 100 124 150 162 140 140 133 115 96 79 79 91 105 92 14 11 335 335 341 342 336 334 341 356 341 342 345 341 340 337 335 335 334 336 336 335 334 333 332
Wind_Speed_850mb
29 28 28 28 27 28 30 32 32 32 31 31 29 27 23 22 20 18 13 12 17 15 40 26 21 23 21 14 8 9 9 11 11 10 6 6 9 8 9 2 5 7 7 7 5 8 10 9 10 9 13 12 6 7
31 31 30 30 28 28 30 33 32 32 31 30 29 27 23 22 21 19 9 19 26 21 34 49 57 53 42 27 13 7 10 1 4 5 6 2 8 8 8 9 8 8 5 7 7 7 5 4 4 5 11 11 10 11
32 33 32 32 30 29 30 32 33 32 31 30 29 27 24 21 22 22 24 25 22 24 47 27 13 14 25 48 44 13 10 7 6 7 6 3 10 8 11 12 7 9 10 9 5 12 10 11 12 13 13 12 10 14
32 34 34 32 32 30 30 32 34 33 31 30 29 27 25 22 22 25 26 21 21 17 14 10 15 20 11 14 34 51 30 11 11 8 15 6 10 3 6 6 13 8 15 12 14 9 10 15 17 20 21 19 18 22
32 34 33 33 33 31 31 32 34 33 32 31 30 27 26 24 23 25 27 31 21 13 15 36 53 25 17 38 39 34 37 38 15 6 7 8 2 4 5 8 15 12 16 12 14 8 22 27 21 22 21 23 16 17
33 33 32 32 31 32 32 33 34 33 32 31 29 26 25 23 22 16 6 4 11 10 11 9 15 13 6 9 29 41 34 29 33 16 12 6 7 8 5 4 12 39 30 20 11 9 10 23 22 19 20 19 20 21
34 32 31 30 31 32 32 33 33 33 32 32 30 26 25 23 25 16 9 11 12 18 9 15 10 6 7 13 15 23 29 24 25 25 14 12 13 8 6 6 20 36 28 18 11 25 23 26 17 24 24 26 26 25
34 31 29 28 30 30 31 33 32 33 33 32 29 27 25 26 32 32 25 29 27 16 12 8 9 12 13 15 16 19 18 23 17 19 8 12 9 9 9 17 10 18 24 19 21 17 14 29 31 28 24 22 23 24
34 31 26 31 29 29 31 32 31 32 33 30 27 23 28 26 14 14 15 15 18 16 10 10 7 3 5 8 6 16 19 11 11 15 14 17 10 12 4 13 11 18 21 18 21 22 28 29 29 26 22 20 21 19
33 30 31 32 30 30 30 29 29 31 28 21 19 7 9 9 13 8 7 9 14 17 17 15 24 13 8 9 11 10 14 9 9 12 19 11 11 6 2 3 8 10 17 25 31 31 29 29 26 22 20 17 17 16
34 32 33 30 28 28 26 25 24 26 9 6 5 8 11 10 6 9 11 16 18 11 19 23 45 29 24 13 4 11 5 7 7 10 10 11 7 9 6 10 15 14 16 16 18 25 24 26 27 25 23 14 10 13
35 34 30 28 28 27 24 22 20 15 8 12 20 30 18 9 14 11 10 12 13 10 19 17 22 28 19 17 18 11 8 6 8 20 8 7 8 21 20 22 28 31 32 36 35 37 31 30 23 13 10 12 8 9
36 31 28 26 24 23 24 20 17 11 10 14 8 8 9 11 8 11 15 11 9 13 15 19 13 13 14 17 13 8 11 9 11 8 4 7 27 26 26 27 29 34 35 36 36 30 24 21 18 22 18 12 6 2
33 29 26 22 23 27 23 14 15 13 8 8 9 9 11 12 12 11 16 11 15 7 5 9 11 13 10 15 9 9 4 5 8 9 5 8 31 30 27 29 32 36 34 30 26 21 18 18 15 10 6 5 2 3
30 27 24 24 27 25 20 17 28 15 9 9 11 10 15 21 19 16 20 23 22 15 17 12 8 10 8 8 7 6 9 8 3 3 6 24 33 40 34 28 32 31 27 26 26 26 24 17 11 8 3 2 7 10
30 30 32 25 23 23 14 29 30 14 8 10 15 13 19 21 14 15 18 18 11 15 15 14 9 7 11 6 10 8 6 1 6 7 29 35 34 38 37 28 28 26 24 24 24 20 14 7 4 3 5 8 12 15
37 33 23 20 18 13 34 27 17 11 12 12 14 20 27 27 22 16 17 18 25 15 9 9 10 6 2 4 5 8 8 7 19 27 29 35 37 37 36 30 24 24 18 13 14 10 4 5 7 9 12 15 17 20
43 27 26 13 16 37 40 24 11 12 16 22 21 14 14 15 18 12 15 15 9 10 9 4 8 4 8 4 4 6 14 30 35 34 32 36 38 35 26 22 19 16 16 11 6 2 7 12 16 17 20 20 25 25
42 29 23 33 42 39 19 14 14 11 26 28 25 23 11 3 3 11 11 10 6 9 3 7 8 6 5 10 15 25 26 36 44 38 29 25 20 20 21 18 15 11 9 4 4 9 15 18 21 23 24 24 27 29
50 43 41 43 57 17 13 12 20 15 12 13 23 20 7 2 2 9 21 19 15 8 13 8 7 11 14 23 27 37 44 41 36 35 25 18 11 12 15 13 10 8 3 4 9 15 20 23 22 24 25 27 25 29
43 46 40 49 55 22 11 12 21 16 14 13 18 21 8 9 7 11 16 20 13 11 9 11 16 34 40 44 39 36 29 23 20 15 12 11 11 12 11 10 7 2 6 12 17 21 24 26 27 26 25 24 27 34
60 48 40 51 21 13 16 21 15 9 11 11 26 17 10 7 7 10 9 27 12 12 10 24 43 45 42 38 32 29 26 23 22 21 18 15 13 10 8 4 4 8 13 16 20 25 28 26 24 23 25 30 35 38
53 36 29 27 19 16 19 19 18 14 11 21 22 13 6 7 7 10 12 11 9 15 31 38 44 42 41 35 33 31 24 21 20 16 14 12 10 7 4 5 8 13 17 20 24 24 23 24 22 31 32 35 38 40
37 32 19 18 22 10 13 14 17 4 6 5 7 10 7 8 16 9 7 7 7 18 35 42 39 40 36 30 30 25 21 17 16 14 11 7 6 4 4 7 12 15 18 20 21 22 23 26 31 33 35 39 40 42
18 19 14 15 16 11 11 11 9 5 3 3 7 8 10 10 5 5 5 11 16 23 31 32 29 26 28 24 19 18 17 11 9 10 10 8 6 6 8 11 13 16 18 21 23 26 29 31 33 37 40 41 44 46
12 23 14 22 10 14 9 12 13 10 9 8 5 13 8 7 6 7 5 28 23 24 32 26 24 24 20 16 13 10 11 12 9 8 8 8 9 10 11 13 16 16 21 23 27 31 34 36 38 40 42 43 43 43
4 6 4 5 5 6 8 11 13 10 8 7 6 8 7 7 7 6 17 22 32 33 27 24 18 18 17 13 10 10 9 9 10 7 4 6 8 10 11 14 16 19 24 25 27 32 36 38 40 42 44 43 40 40
8 18 10 16 16 22 10 10 10 9 7 10 5 9 6 6 5 13 25 35 33 30 30 26 20 15 13 12 10 7 7 6 9 10 11 10 14 13 12 13 18 30 25 28 33 33 33 35 40 40 39 39 39 40
9 9 9 21 14 17 16 14 11 9 8 4 6 6 8 11 30 48 43 38 36 35 29 21 15 14 13 11 10 8 6 6 9 11 13 15 15 13 19 20 22 24 28 30 33 36 37 40 34 35 33 36 37 36
4 6 10 17 12 11 14 14 11 9 11 15 25 54 51 45 41 41 44 39 27 22 18 16 13 10 7 5 5 6 8 8 10 13 17 18 17 19 21 22 24 27 29 29 30 31 33 36 32 30 32 34 36 38
10 12 13 15 12 27 37 41 48 56 61 63 52 59 54 45 38 29 24 23 22 20 17 14 12 9 6 5 4 4 4 8 12 14 16 13 16 17 21 24 26 25 25 27 28 29 32 35 34 35 35 37 38 40
10 14 22 13 32 37 42 47 47 48 45 48 47 46 42 30 19 14 16 17 16 14 14 12 8 7 6 5 5 5 5 8 11 13 12 11 14 19 21 21 23 23 23 25 27 29 32 34 36 37 38 38 39 41
45 55 52 36 25 17 18 14 16 18 21 23 19 16 12 10 11 12 16 15 13 11 11 9 8 6 5 5 3 5 8 10 17 18 18 24 24 21 17 18 20 21 25 26 28 31 33 35 36 38 40 42 41 42
Wind_Direction_850mb
283 288 292 299 307 311 315 316 319 322 323 324 324 326 324 317 321 335 323 321 342 293 288 273 267 267 275 248 253 116 202 198 205 247 265 195 250 191 245 206 256 269 258 222 260 254 210 148 180 264 80 139 141 128
278 281 285 290 297 307 310 311 314 318 319 320 321 318 318 313 309 319 329 319 317 276 269 284 279 267 249 251 311 256 328 247 263 252 224 237 216 208 269 246 177 245 278 334 269 25 116 228 224 142 168 169 159 162
274 276 279 283 289 298 303 306 309 314 315 317 315 311 310 306 303 308 305 315 329 296 302 266 280 298 256 238 230 247 248 272 241 255 308 302 255 248 238 229 227 211 207 245 253 174 229 212 189 184 189 160 145 140
273 272 273 278 284 293 298 301 304 308 314 313 309 305 302 299 295 295 299 298 310 298 280 300 291 301 284 253 225 229 233 303 259 239 244 291 274 245 287 333 278 12 168 245 249 216 189 183 168 156 139 129 124 120
273 271 270 274 279 285 293 294 297 303 311 312 304 299 297 294 290 289 290 289 284 238 303 296 300 293 255 236 225 224 223 229 245 235 218 243 304 274 327 304 276 197 262 238 275 171 222 166 170 155 154 138 151 132
269 268 266 269 277 280 285 290 294 299 306 308 298 293 291 290 292 310 273 220 346 228 284 288 307 290 246 225 209 213 216 217 223 248 233 192 180 217 161 274 320 320 284 274 288 210 192 156 153 154 152 140 134 124
266 263 261 267 274 278 281 285 290 296 302 305 295 288 283 279 277 252 259 212 292 331 279 287 267 230 202 180 177 185 195 207 218 232 235 207 201 210 201 273 275 271 249 230 176 143 144 154 142 134 139 133 126 114
262 255 260 269 273 276 280 284 288 293 299 301 290 283 278 269 273 271 259 255 265 255 256 272 274 262 193 197 177 189 183 198 214 226 201 205 162 216 246 255 221 220 213 214 191 198 173 149 138 139 144 143 130 117
251 250 257 265 271 274 277 282 288 294 300 298 286 284 281 256 240 237 249 240 227 212 272 240 269 7 202 203 173 177 195 204 174 221 210 185 180 218 302 187 209 202 196 200 179 162 149 149 147 148 149 143 127 117
239 245 255 263 271 274 276 282 290 298 302 291 290 258 230 211 231 246 243 185 193 211 228 253 250 256 286 188 203 192 197 208 206 206 135 222 223 139 115 180 212 207 194 168 157 156 154 146 142 137 129 124 113 104
239 246 254 263 266 267 273 282 295 303 298 336 273 244 263 258 243 225 222 207 184 222 213 233 232 244 232 251 250 215 206 220 238 153 216 191 200 143 123 110 114 124 142 148 142 138 143 144 138 132 120 108 91 74
243 247 253 257 256 263 269 280 290 268 222 283 293 288 284 221 214 229 208 200 207 233 187 224 218 209 226 222 229 201 240 206 246 141 215 220 88 115 115 104 103 107 111 112 114 115 118 133 134 123 93 73 53 60
237 242 244 246 253 259 271 274 267 229 269 294 266 253 219 204 235 222 202 196 211 198 208 204 195 184 183 205 217 210 223 223 133 206 220 50 124 121 120 120 113 113 118 121 115 114 108 97 79 63 63 81 107 56
232 233 232 237 244 262 272 258 194 199 254 249 239 253 217 198 233 203 245 252 217 279 260 219 209 208 198 186 226 223 168 198 233 223 167 132 140 132 136 132 129 120 121 118 111 105 93 78 65 71 107 133 168 332
222 222 232 240 250 263 259 188 182 219 228 251 237 241 230 249 276 272 278 279 266 273 272 254 226 223 203 227 218 214 208 219 282 16 121 131 135 134 131 138 131 122 111 103 95 89 84 81 78 72 58 319 302 306
220 230 240 242 248 254 211 179 191 225 246 247 236 260 261 270 299 308 299 301 340 304 273 245 264 240 214 227 207 214 248 181 80 71 130 141 138 141 132 132 120 111 104 99 94 82 86 85 39 345 320 316 316 309
225 240 258 259 253 242 178 190 191 226 234 243 241 254 273 290 292 318 318 309 308 307 238 219 229 206 201 216 104 19 28 25 96 107 130 146 132 133 128 127 116 105 108 123 116 100 75 9 341 323 313 309 312 311
226 236 246 219 189 178 180 191 222 227 242 251 258 276 288 288 303 304 321 326 333 324 297 19 332 341 5 17 67 87 86 90 101 115 122 126 121 113 113 122 130 135 126 119 111 40 353 333 323 315 311 310 310 311
211 210 216 188 174 171 190 217 214 256 235 245 255 267 265 252 360 2 358 353 27 26 35 41 50 43 37 45 90 101 111 111 106 103 106 100 90 103 112 111 118 127 134 113 6 332 329 324 318 317 310 307 308 311
201 202 194 176 176 197 210 217 203 253 262 228 221 217 217 115 47 22 33 29 37 60 50 42 39 2 75 92 124 123 120 113 114 116 119 107 106 125 124 116 127 128 76 360 336 341 332 327 324 320 314 307 311 314
187 187 175 182 206 231 261 215 200 234 247 239 189 171 145 111 54 36 27 29 56 39 71 66 90 104 106 108 108 109 110 110 107 98 123 134 120 115 114 113 115 56 341 333 331 329 331 327 324 322 319 313 312 315
167 158 167 183 203 241 258 233 227 245 219 202 158 154 137 126 70 37 54 48 50 27 84 118 113 114 111 104 103 99 95 95 90 88 84 93 113 118 116 92 347 337 336 334 330 330 328 327 321 328 325 320 319 319
155 158 170 186 213 225 262 215 219 227 214 168 145 122 107 88 88 66 68 59 67 89 117 119 118 113 105 104 102 96 92 87 87 88 90 95 98 94 79 20 354 340 333 332 330 330 331 332 335 329 329 326 324 322
164 168 178 204 217 249 242 216 209 197 70 170 112 114 107 120 85 71 88 77 103 137 134 127 124 113 109 104 92 83 74 77 77 76 74 71 68 53 30 356 348 345 337 337 340 337 335 331 331 331 328 327 325 323
181 202 218 217 194 222 237 187 130 110 56 304 138 125 132 124 96 87 101 130 133 130 137 136 128 120 111 102 93 76 67 65 70 67 59 58 48 15 351 348 348 347 349 346 342 339 335 332 330 327 325 324 323 322
211 203 212 195 204 218 230 178 141 139 223 149 111 124 128 97 91 84 91 148 148 151 143 142 143 123 111 103 96 82 61 52 58 70 60 36 23 5 351 348 347 347 341 342 338 334 330 328 326 324 323 325 324 324
228 37 169 23 295 317 76 30 57 79 53 50 98 125 119 81 81 83 127 148 152 150 153 153 138 129 121 112 95 84 69 60 79 81 53 20 5 353 347 341 340 328 332 334 330 328 327 325 324 324 323 322 323 325
28 17 34 15 55 33 45 37 30 31 33 358 55 45 63 59 100 133 138 142 150 154 150 140 121 120 118 108 100 78 63 61 40 27 2 355 348 344 344 337 324 331 341 328 324 327 324 323 323 323 324 324 327 326
30 18 63 48 57 50 36 17 10 5 348 354 95 87 91 84 125 133 135 141 143 146 139 125 118 113 107 99 86 70 53 30 13 4 356 346 343 337 332 333 330 328 325 324 326 328 324 327 330 329 330 328 328 328
65 64 93 44 44 41 15 15 20 40 66 99 106 110 105 103 118 127 127 125 122 124 125 120 116 113 110 101 71 43 36 35 16 360 345 339 334 329 330 331 328 327 327 328 328 331 333 337 338 337 333 332 332 331
123 95 76 80 87 87 83 86 88 91 97 104 110 108 111 116 107 100 110 118 119 115 111 110 105 96 91 71 50 24 24 360 352 352 344 342 333 333 328 330 329 330 330 331 334 339 340 340 340 339 338 336 335 335
91 110 121 109 123 109 95 89 89 92 98 102 105 111 120 116 103 127 123 123 123 119 113 102 88 74 75 73 68 37 49 354 346 350 354 349 332 327 333 334 331 333 335 339 336 335 337 338 337 336 336 335 335 334
102 107 110 109 127 125 142 107 105 96 99 107 112 115 112 100 124 150 162 140 140 133 115 96 79 79 91 105 92 14 11 335 335 341 342 336 334 341 356 341 342 345 341 340 337 335 335 334 336 336 335 334 333 332